H1 CPF 2 NER 2024 9 1 9 245 01 glonass146 H2 2216101 9146 54377 2024 9 1 0 0 0 2024 9 4 23 45 0 900 1 1 0 0 0 1 H9 10 0 60554 0.00000 0 -13153755.917 -514144.906 -21841516.305 10 0 60554 900.00000 0 -14818174.025 -2540697.320 -20602808.349 10 0 60554 1800.00000 0 -16507451.287 -4308341.921 -18963825.461 10 0 60554 2700.00000 0 -18160365.294 -5791082.127 -16956539.238 10 0 60554 3600.00000 0 -19713670.551 -6975438.027 -14620047.388 10 0 60554 4500.00000 0 -21104716.978 -7860737.393 -11999807.035 10 0 60554 5400.00000 0 -22274060.352 -8458868.900 -9146746.790 10 0 60554 6300.00000 0 -23167955.616 -8793510.194 -6116275.057 10 0 60554 7200.00000 0 -23740628.970 -8898865.232 -2967203.978 10 0 60554 8100.00000 0 -23956234.014 -8817965.745 239390.060 10 0 60554 9000.00000 0 -23790410.536 -8600609.633 3441347.323 10 0 60554 9900.00000 0 -23231381.091 -8301024.088 6576624.272 10 0 60554 10800.00000 0 -22280539.903 -7975352.440 9584488.806 10 0 60554 11700.00000 0 -20952509.662 -7679070.834 12406688.538 10 0 60554 12600.00000 0 -19274663.866 -7464443.485 14988570.021 10 0 60554 13500.00000 0 -17286134.406 -7378123.419 17280128.052 10 0 60554 14400.00000 0 -15036345.218 -7458999.388 19236965.589 10 0 60554 15300.00000 0 -12583132.236 -7736379.280 20821146.563 10 0 60554 16200.00000 0 -9990526.745 -8228586.372 22001925.951 10 0 60554 17100.00000 0 -7326292.916 -8942027.662 22756343.662 10 0 60554 18000.00000 0 -4659320.339 -9870774.103 23069671.213 10 0 60554 18900.00000 0 -2056978.277 -10996671.435 22935702.685 10 0 60554 19800.00000 0 417459.961 -12289978.485 22356884.100 10 0 60554 20700.00000 0 2707216.824 -13710507.955 21344278.111 10 0 60554 21600.00000 0 4764135.773 -15209223.822 19917363.716 10 0 60554 22500.00000 0 6550444.282 -16730230.296 18103673.634 10 0 60554 23400.00000 0 8040081.500 -18213070.605 15938274.973 10 0 60554 24300.00000 0 9219535.278 -19595240.425 13463101.842 10 0 60554 25200.00000 0 10088153.508 -20814811.219 10726151.547 10 0 60554 26100.00000 0 10657916.575 -21813053.356 7780558.955 10 0 60554 27000.00000 0 10952680.402 -22536948.291 4683566.381 10 0 60554 27900.00000 0 11006922.020 -22941483.048 1495408.783 10 0 60554 28800.00000 0 10864040.931 -22991629.009 -1721863.718 10 0 60554 29700.00000 0 10574288.625 -22663919.947 -4905602.406 10 0 60554 30600.00000 0 10192414.844 -21947561.155 -7993790.872 10 0 60554 31500.00000 0 9775131.436 -20845021.311 -10926264.971 10 0 60554 32400.00000 0 9378502.696 -19372080.883 -13645896.707 10 0 60554 33300.00000 0 9055374.230 -17557334.075 -16099717.693 10 0 60554 34200.00000 0 8852950.715 -15441164.756 -18239959.196 10 0 60554 35100.00000 0 8810626.354 -13074239.210 -20024987.708 10 0 60554 36000.00000 0 8958160.841 -10515579.073 -21420117.436 10 0 60554 36900.00000 0 9314278.560 -7830295.494 -22398283.795 10 0 60554 37800.00000 0 9885750.541 -5087079.632 -22940565.152 10 0 60554 38700.00000 0 10666997.874 -2355554.528 -23036543.196 10 0 60554 39600.00000 0 11640233.076 296401.113 -22684495.736 10 0 60554 40500.00000 0 12776133.028 2805246.033 -21891419.025 10 0 60554 41400.00000 0 14035014.671 5114179.084 -20672880.066 10 0 60554 42300.00000 0 15368463.522 7175252.471 -19052702.598 10 0 60554 43200.00000 0 16721346.118 8951109.060 -17062493.588 10 0 60554 44100.00000 0 18034121.524 10416273.147 -14741020.000 10 0 60554 45000.00000 0 19245354.615 11557942.944 -12133448.447 10 0 60554 45900.00000 0 20294325.535 12376253.909 -9290462.814 10 0 60554 46800.00000 0 21123625.891 12884004.176 -6267277.222 10 0 60554 47700.00000 0 21681632.870 13105855.734 -3122563.649 10 0 60554 48600.00000 0 21924757.745 13077046.821 82684.924 10 0 60554 49500.00000 0 21819374.765 12841671.219 3286333.884 10 0 60554 50400.00000 0 21343349.852 12450598.030 6426306.110 10 0 60554 51300.00000 0 20487105.272 11959120.266 9441777.938 10 0 60554 52200.00000 0 19254175.814 11424431.589 12274349.266 10 0 60554 53100.00000 0 17661233.083 10903037.501 14869165.694 10 0 60554 54000.00000 0 15737576.558 10448209.631 17175971.731 10 0 60554 54900.00000 0 13524111.957 10107589.840 19150075.548 10 0 60554 55800.00000 0 11071858.550 9921044.419 20753207.452 10 0 60554 56700.00000 0 8440046.296 9918858.202 21954256.318 10 0 60554 57600.00000 0 5693880.399 10120344.286 22729870.445 10 0 60554 58500.00000 0 2902064.527 10532927.941 23064911.661 10 0 60554 59400.00000 0 134183.772 11151743.702 22952754.049 10 0 60554 60300.00000 0 -2541945.691 11959763.538 22395421.315 10 0 60554 61200.00000 0 -5062851.677 12928452.051 21403559.534 10 0 60554 62100.00000 0 -7371800.121 14018922.789 19996244.876 10 0 60554 63000.00000 0 -9420909.606 15183548.844 18200628.776 10 0 60554 63900.00000 0 -11172898.778 16367961.673 16051426.061 10 0 60554 64800.00000 0 -12602394.034 17513355.495 13590254.520 10 0 60554 65700.00000 0 -13696742.799 18559001.283 10864837.400 10 0 60554 66600.00000 0 -14456298.128 19444864.885 7928083.300 10 0 60554 67500.00000 0 -14894162.532 20114218.804 4837060.654 10 0 60554 68400.00000 0 -15035401.645 20516136.710 1651886.493 10 0 60554 69300.00000 0 -14915761.031 20607764.233 -1565448.592 10 0 60554 70200.00000 0 -14579940.656 20356268.556 -4752295.743 10 0 60554 71100.00000 0 -14079500.705 19740382.778 -7846578.679 10 0 60554 72000.00000 0 -13470488.356 18751478.078 -10788014.800 10 0 60554 72900.00000 0 -12810887.239 17394116.884 -13519301.404 10 0 60554 73800.00000 0 -12157998.932 15686062.405 -15987242.615 10 0 60554 74700.00000 0 -11565868.725 13657743.207 -18143793.955 10 0 60554 75600.00000 0 -11082865.792 11351194.759 -19947003.410 10 0 60554 76500.00000 0 -10749521.072 8818522.150 -21361830.248 10 0 60554 77400.00000 0 -10596714.830 6119948.421 -22360825.563 10 0 60554 78300.00000 0 -10644290.681 3321530.321 -22924661.600 10 0 60554 79200.00000 0 -10900154.413 492637.061 -23042500.127 10 0 60554 80100.00000 0 -11359895.142 -2296702.706 -22712193.455 10 0 60554 81000.00000 0 -12006944.120 -4978475.271 -21940315.061 10 0 60554 81900.00000 0 -12813263.647 -7489266.811 -20742020.120 10 0 60554 82800.00000 0 -13740536.288 -9772652.033 -19140739.484 10 0 60554 83700.00000 0 -14741803.541 -11781288.347 -17167713.763 10 0 60554 84600.00000 0 -15763484.339 -13478629.878 -14861377.187 10 0 60554 85500.00000 0 -16747687.989 -14840191.687 -12266603.660 10 0 60555 0.00000 0 -17634723.818 -15854313.417 -9433830.272 10 0 60555 900.00000 0 -18365702.303 -16522393.069 -6418073.943 10 0 60555 1800.00000 0 -18885117.112 -16858581.950 -3277864.295 10 0 60555 2700.00000 0 -19143301.196 -16888957.341 -74108.453 10 0 60555 3600.00000 0 -19098652.700 -16650207.901 3131086.532 10 0 60555 4500.00000 0 -18719537.853 -16187888.968 6275612.396 10 0 60555 5400.00000 0 -17985791.065 -15554321.992 9298556.336 10 0 60555 6300.00000 0 -16889749.322 -14806226.952 12141372.918 10 0 60555 7200.00000 0 -15436777.387 -14002187.497 14749009.080 10 0 60555 8100.00000 0 -13645261.456 -13200055.201 17070961.181 10 0 60555 9000.00000 0 -11546070.760 -12454401.576 19062244.531 10 0 60555 9900.00000 0 -9181508.586 -11814124.303 20684257.446 10 0 60555 10800.00000 0 -6603795.058 -11320307.590 21905523.999 10 0 60555 11700.00000 0 -3873143.156 -11004425.925 22702301.813 10 0 60555 12600.00000 0 -1055506.178 -10886966.367 23059043.572 10 0 60555 13500.00000 0 1779911.753 -10976527.173 22968703.547 10 0 60555 14400.00000 0 4563280.642 -11269431.038 22432882.961 10 0 60555 15300.00000 0 7226797.782 -11749869.963 21461810.838 10 0 60555 16200.00000 0 9707260.384 -12390576.796 20074159.742 10 0 60555 17100.00000 0 11948451.867 -13153996.571 18296698.777 10 0 60555 18000.00000 0 13903243.163 -13993909.804 16163789.156 10 0 60555 18900.00000 0 15535321.806 -14857440.686 13716730.716 10 0 60555 19800.00000 0 16820476.586 -15687366.610 11002970.711 10 0 60555 20700.00000 0 17747383.753 -16424632.199 8075189.217 10 0 60555 21600.00000 0 18317861.494 -17010961.769 4990278.232 10 0 60555 22500.00000 0 18546581.683 -17391459.405 1808234.053 10 0 60555 23400.00000 0 18460250.887 -17517085.700 -1409015.241 10 0 60555 24300.00000 0 18096295.321 -17346905.023 -4598823.719 10 0 60555 25200.00000 0 17501105.700 -16850006.571 -7699058.285 10 0 60555 26100.00000 0 16727916.951 -16007016.158 -10649320.850 10 0 60555 27000.00000 0 15834413.503 -14811133.117 -13392136.802 10 0 60555 27900.00000 0 14880162.660 -13268646.940 -15874085.358 10 0 60555 28800.00000 0 13923985.899 -11398910.644 -18046848.613 10 0 60555 29700.00000 0 13021380.390 -9233771.028 -19868158.054 10 0 60555 30600.00000 0 12222100.649 -6816479.163 -21302619.667 10 0 60555 31500.00000 0 11568003.052 -4200126.596 -22322401.485 10 0 60555 32400.00000 0 11091244.353 -1445672.611 -22907770.466 10 0 60555 33300.00000 0 10812909.962 1380354.945 -23047468.846 10 0 60555 34200.00000 0 10742129.203 4208389.288 -22738923.377 10 0 60555 35100.00000 0 10875713.891 6968479.430 -21988284.278 10 0 60555 36000.00000 0 11198334.365 9592959.815 -20810294.010 10 0 60555 36900.00000 0 11683224.331 12019024.281 -19227989.263 10 0 60555 37800.00000 0 12293383.703 14191098.141 -17272242.681 10 0 60555 38700.00000 0 12983227.683 16062910.849 -14981153.806 10 0 60555 39600.00000 0 13700611.775 17599184.401 -12399301.564 10 0 60555 40500.00000 0 14389146.747 18776868.787 -9576873.162 10 0 60555 41400.00000 0 14990705.608 19585874.850 -6568686.505 10 0 60555 42300.00000 0 15448016.738 20029275.800 -3433125.328 10 0 60555 43200.00000 0 15707233.927 20122970.890 -231007.714 10 0 60555 44100.00000 0 15720375.153 19894827.030 2975590.083 10 0 60555 45000.00000 0 15447527.634 19383335.803 6124531.838 10 0 60555 45900.00000 0 14858726.515 18635843.350 9154818.646 10 0 60555 46800.00000 0 13935428.301 17706428.154 12007762.554 10 0 60555 47700.00000 0 12671517.051 16653516.130 14628114.367 10 0 60555 48600.00000 0 11073800.783 15537333.100 16965124.519 10 0 60555 49500.00000 0 9161976.584 14417301.129 18973517.333 10 0 60555 50400.00000 0 6968064.890 13349487.356 20614360.663 10 0 60555 51300.00000 0 4535335.130 12384211.513 21855814.949 10 0 60555 52200.00000 0 1916765.808 11563911.659 22673747.903 10 0 60555 53100.00000 0 -826898.801 10921356.947 23052203.436 10 0 60555 54000.00000 0 -3629416.630 10478281.888 22983715.916 10 0 60555 54900.00000 0 -6421548.316 10244499.288 22469463.526 10 0 60555 55800.00000 0 -9133688.270 10217529.319 21519257.174 10 0 60555 56700.00000 0 -11698518.690 10382760.876 20151364.264 10 0 60555 57600.00000 0 -14053577.517 10714139.365 18392169.534 10 0 60555 58500.00000 0 -16143634.331 11175353.022 16275678.129 10 0 60555 59400.00000 0 -17922775.614 11721468.924 13842869.148 10 0 60555 60300.00000 0 -19356112.399 12300950.634 11140910.830 10 0 60555 61200.00000 0 -20421038.551 12857972.964 8222251.590 10 0 60555 62100.00000 0 -21107986.541 13334936.263 5143603.831 10 0 60555 63000.00000 0 -21420648.399 13675073.595 1964840.025 10 0 60555 63900.00000 0 -21375652.174 13825039.669 -1252177.229 10 0 60555 64800.00000 0 -21001707.329 13737370.645 -4444807.741 10 0 60555 65700.00000 0 -20338255.219 13372709.076 -7550864.238 10 0 60555 66600.00000 0 -19433682.124 12701697.967 -10509835.570 10 0 60555 67500.00000 0 -18343171.112 11706462.000 -13264077.416 10 0 60555 68400.00000 0 -17126284.501 10381611.571 -15759946.007 10 0 60555 69300.00000 0 -15844380.250 8734725.759 -17948851.605 10 0 60555 70200.00000 0 -14557972.463 6786292.661 -19788210.428 10 0 60555 71100.00000 0 -13324148.376 4569108.735 -21242276.031 10 0 60555 72000.00000 0 -12194151.396 2127161.833 -22282833.822 10 0 60555 72900.00000 0 -11211232.276 -485955.560 -22889745.522 10 0 60555 73800.00000 0 -10408858.729 -3209036.629 -23051333.492 10 0 60555 74700.00000 0 -9809358.181 -5975570.946 -22764598.224 10 0 60555 75600.00000 0 -9423049.745 -8716279.319 -22035265.621 10 0 60555 76500.00000 0 -9247900.579 -11361767.325 -20877664.049 10 0 60555 77400.00000 0 -9269719.612 -13845187.401 -19314434.375 10 0 60555 78300.00000 0 -9462878.892 -16104799.306 -17376079.357 10 0 60555 79200.00000 0 -9791530.736 -18086323.253 -15100361.750 10 0 60555 80100.00000 0 -10211268.068 -19744988.827 -12531563.277 10 0 60555 81000.00000 0 -10671156.911 -21047195.687 -9719619.226 10 0 60555 81900.00000 0 -11116054.563 -21971718.345 -6719145.687 10 0 60555 82800.00000 0 -11489115.115 -22510406.340 -3588378.478 10 0 60555 83700.00000 0 -11734376.425 -22668352.246 -388044.422 10 0 60555 84600.00000 0 -11799319.343 -22463522.070 2819813.205 10 0 60555 85500.00000 0 -11637291.357 -21925864.925 5973032.367 10 0 60556 0.00000 0 -11209692.753 -21095940.543 9010529.920 10 0 60556 900.00000 0 -10487833.013 -20023122.444 11873478.043 10 0 60556 1800.00000 0 -9454380.008 -18763453.712 14506433.179 10 0 60556 2700.00000 0 -8104340.090 -17377243.806 16858401.780 10 0 60556 3600.00000 0 -6445527.902 -15926507.814 18883818.977 10 0 60556 4500.00000 0 -4498505.152 -14472354.397 20543423.735 10 0 60556 5400.00000 0 -2295989.616 -13072431.010 21805014.153 10 0 60556 6300.00000 0 118242.619 -11778532.349 22644069.033 10 0 60556 7200.00000 0 2690917.869 -10634471.214 23044224.164 10 0 60556 8100.00000 0 5361225.687 -9674300.074 22997594.338 10 0 60556 9000.00000 0 8063100.491 -8920957.256 22504934.692 10 0 60556 9900.00000 0 10727731.205 -8385394.228 21575637.706 10 0 60556 10800.00000 0 13286196.454 -8066220.669 20227565.019 10 0 60556 11700.00000 0 15672117.261 -7949882.644 18486716.106 10 0 60556 12600.00000 0 17824217.841 -8011367.058 16386738.867 10 0 60556 13500.00000 0 19688688.360 -8215403.515 13968290.175 10 0 60556 14400.00000 0 21221251.131 -8518113.675 11278257.449 10 0 60556 15300.00000 0 22388843.554 -8869039.070 8368855.301 10 0 60556 16200.00000 0 23170846.682 -9213461.915 5296614.078 10 0 60556 17100.00000 0 23559807.203 -9494920.557 2121279.664 10 0 60556 18000.00000 0 23561621.701 -9657812.411 -1095353.815 10 0 60556 18900.00000 0 23195174.996 -9649973.001 -4290655.030 10 0 60556 19800.00000 0 22491447.497 -9425120.358 -7402385.673 10 0 60556 20700.00000 0 21492129.361 -8945059.475 -10369924.591 10 0 60556 21600.00000 0 20247800.390 -8181551.615 -13135460.628 10 0 60556 22500.00000 0 18815753.246 -7117767.578 -15645129.654 10 0 60556 23400.00000 0 17257552.803 -5749261.836 -17850072.443 10 0 60556 24300.00000 0 15636435.596 -4084425.076 -19707391.977 10 0 60556 25200.00000 0 14014659.887 -2144394.948 -21180991.070 10 0 60556 26100.00000 0 12450918.656 37571.942 -22242273.861 10 0 60556 27000.00000 0 10997924.683 2417240.946 -22870697.818 10 0 60556 27900.00000 0 9700269.121 4941005.650 -23054166.025 10 0 60556 28800.00000 0 8592643.008 7547892.437 -22789252.907 10 0 60556 29700.00000 0 7698495.308 10171879.699 -22081259.837 10 0 60556 30600.00000 0 7029182.483 12744435.068 -20944100.466 10 0 60556 31500.00000 0 6583643.578 15197165.105 -19400018.811 10 0 60556 32400.00000 0 6348612.655 17464467.478 -17479146.331 10 0 60556 33300.00000 0 6299357.757 19486075.724 -15218907.191 10 0 60556 34200.00000 0 6400913.605 21209391.372 -12663283.741 10 0 60556 35100.00000 0 6609754.542 22591507.252 -9861956.844 10 0 60556 36000.00000 0 6875835.998 23600838.786 -6869337.937 10 0 60556 36900.00000 0 7144917.461 24218296.491 -3743511.835 10 0 60556 37800.00000 0 7361068.314 24437952.124 -545110.815 10 0 60556 38700.00000 0 7469250.515 24267171.981 2663858.206 10 0 60556 39600.00000 0 7417869.020 23726213.075 5821210.758 10 0 60556 40500.00000 0 7161182.452 22847300.136 8865783.257 10 0 60556 41400.00000 0 6661472.505 21673222.920 11738609.999 10 0 60556 42300.00000 0 5890880.752 20255512.975 14384056.440 10 0 60556 43200.00000 0 4832835.518 18652276.299 16750887.556 10 0 60556 44100.00000 0 3483008.465 16925772.269 18793251.445 10 0 60556 45000.00000 0 1849760.056 15139839.503 20471559.975 10 0 60556 45900.00000 0 -45945.847 13357275.356 21753250.306 10 0 60556 46800.00000 0 -2171156.218 11637277.489 22613413.308 10 0 60556 47700.00000 0 -4482048.117 10033053.293 23035277.179 10 0 60556 48600.00000 0 -6925508.391 8589695.954 23010537.181 10 0 60556 49500.00000 0 -9441110.307 7342415.030 22539524.937 10 0 60556 50400.00000 0 -11963406.996 6315194.903 21631213.485 10 0 60556 51300.00000 0 -14424448.317 5519936.913 20303057.134 10 0 60556 52200.00000 0 -16756418.101 4956121.113 18580668.005 10 0 60556 53100.00000 0 -18894283.110 4611002.115 16497334.162 10 0 60556 54000.00000 0 -20778344.055 4460331.228 14093387.261 10 0 60556 54900.00000 0 -22356582.348 4469575.002 11415430.605 10 0 60556 55800.00000 0 -23586704.169 4595579.224 8515441.519 10 0 60556 56700.00000 0 -24437795.597 4788608.291 5449764.741 10 0 60556 57600.00000 0 -24891518.459 4994673.588 2278016.065 10 0 60556 58500.00000 0 -24942795.675 5158051.764 -938082.221 10 0 60556 59400.00000 0 -24599956.398 5223885.240 -4135910.829 10 0 60556 60300.00000 0 -23884334.191 5140753.395 -7253183.367 10 0 60556 61200.00000 0 -22829334.871 4863103.794 -10229171.361 10 0 60556 62100.00000 0 -21479013.409 4353438.657 -13005899.223 10 0 60556 63000.00000 0 -19886220.297 3584162.144 -15529284.534 10 0 60556 63900.00000 0 -18110396.270 2539008.623 -17750200.267 10 0 60556 64800.00000 0 -16215109.093 1213990.087 -19625437.423 10 0 60556 65700.00000 0 -14265436.994 -382178.461 -21118548.847 10 0 60556 66600.00000 0 -12325309.464 -2228194.446 -22200557.676 10 0 60556 67500.00000 0 -10454917.567 -4290819.748 -22850516.872 10 0 60556 68400.00000 0 -8708302.442 -6526042.299 -23055909.510 10 0 60556 69300.00000 0 -7131222.706 -8880698.769 -22812882.762 10 0 60556 70200.00000 0 -5759389.224 -11294490.521 -22126311.904 10 0 60556 71100.00000 0 -4617139.860 -13702308.685 -21009693.968 10 0 60556 72000.00000 0 -3716608.021 -16036771.342 -19484873.958 10 0 60556 72900.00000 0 -3057417.896 -18230867.224 -17581609.679 10 0 60556 73800.00000 0 -2626917.068 -20220596.009 -15336984.230 10 0 60556 74700.00000 0 -2400934.663 -21947495.606 -12794678.060 10 0 60556 75600.00000 0 -2345031.237 -23360951.703 -10004115.079 10 0 60556 76500.00000 0 -2416186.081 -24420194.076 -7019499.623 10 0 60556 77400.00000 0 -2564849.525 -25095897.264 -3898763.144 10 0 60556 78300.00000 0 -2737272.681 -25371319.833 -702441.142 10 0 60556 79200.00000 0 -2878015.689 -25242935.724 2507497.934 10 0 60556 80100.00000 0 -2932528.280 -24720532.308 5668849.186 10 0 60556 81000.00000 0 -2849693.677 -23826771.992 8720370.240 10 0 60556 81900.00000 0 -2584228.596 -22596236.425 11602959.877 10 0 60556 82800.00000 0 -2098838.297 -21073993.692 14260794.013 10 0 60556 83700.00000 0 -1366035.978 -19313748.507 16642397.750 10 0 60556 84600.00000 0 -369549.830 -17375652.432 18701633.592 10 0 60556 85500.00000 0 894741.786 -15323864.977 20398587.539 10 0 60557 0.00000 0 2418386.924 -13223966.648 21700336.696 10 0 60557 900.00000 0 4180468.246 -11140329.608 22581584.927 10 0 60557 1800.00000 0 6148237.778 -9133557.164 23025153.112 10 0 60557 2700.00000 0 8278256.428 -7258093.865 23022317.083 10 0 60557 3600.00000 0 10517990.863 -5560107.517 22572984.758 10 0 60557 4500.00000 0 12807804.196 -4075729.476 21685709.284 10 0 60557 5400.00000 0 15083259.491 -2829726.211 20377536.932 10 0 60557 6300.00000 0 17277641.959 -1834657.353 18673691.524 10 0 60557 7200.00000 0 19324596.067 -1090555.423 16607100.123 10 0 60557 8100.00000 0 21160768.466 -585140.818 14217767.760 10 0 60557 9000.00000 0 22728346.646 -294563.308 11552011.956 10 0 60557 9900.00000 0 23977386.929 -184639.116 8661570.823 10 0 60557 10800.00000 0 24867833.593 -212531.491 5602601.294 10 0 60557 11700.00000 0 25371143.412 -328803.710 2434586.616 10 0 60557 12600.00000 0 25471446.186 -479757.147 -780825.432 10 0 60557 13500.00000 0 25166191.244 -609954.573 -3981030.416 10 0 60557 14400.00000 0 24466251.699 -664820.543 -7103696.711 10 0 60557 15300.00000 0 23395481.338 -593207.114 -10087991.340 10 0 60557 16200.00000 0 21989742.464 -349814.451 -12875776.946 10 0 60557 17100.00000 0 20295445.676 102637.998 -15412755.273 10 0 60557 18000.00000 0 18367663.457 791583.375 -17649533.704 10 0 60557 18900.00000 0 16267897.578 1733201.155 -19542593.199 10 0 60557 19800.00000 0 14061594.878 2931493.394 -21055138.322 10 0 60557 20700.00000 0 11815516.442 4377883.378 -22157812.633 10 0 60557 21600.00000 0 9595071.021 6051354.235 -22829265.751 10 0 60557 22500.00000 0 7461724.556 7919122.036 -23056561.621 10 0 60557 23400.00000 0 5470594.022 9937815.336 -22835420.724 10 0 60557 24300.00000 0 3668325.523 12055111.702 -22170292.440 10 0 60557 25200.00000 0 2091344.171 14211762.757 -21074257.004 10 0 60557 26100.00000 0 764547.356 16343922.970 -19568759.810 10 0 60557 27000.00000 0 -299505.898 18385684.948 -17683183.989 10 0 60557 27900.00000 0 -1100877.697 20271715.449 -15454270.125 10 0 60557 28800.00000 0 -1651996.587 21939882.298 -12925394.904 10 0 60557 29700.00000 0 -1976878.265 23333762.889 -10145723.028 10 0 60557 30600.00000 0 -2109856.516 24404930.054 -7169249.117 10 0 60557 31500.00000 0 -2093879.450 25114920.430 -4053748.349 10 0 60557 32400.00000 0 -1978444.257 25436803.830 -859656.293 10 0 60557 33300.00000 0 -1817258.502 25356288.804 2351100.384 10 0 60557 34200.00000 0 -1665727.266 24872318.960 5516299.732 10 0 60557 35100.00000 0 -1578372.441 23997135.824 8574623.939 10 0 60557 36000.00000 0 -1606293.083 22755806.166 11466839.516 10 0 60557 36900.00000 0 -1794773.798 21185233.871 14136935.897 10 0 60557 37800.00000 0 -2181141.766 19332697.671 16533201.132 10 0 60557 38700.00000 0 -2792962.556 17253975.464 18609214.660 10 0 60557 39600.00000 0 -3646650.725 15011132.877 20324738.812 10 0 60557 40500.00000 0 -4746554.012 12670067.276 21646492.670 10 0 60557 41400.00000 0 -6084550.389 10297908.355 22548794.062 10 0 60557 42300.00000 0 -7640176.087 7960382.220 23014057.800 10 0 60557 43200.00000 0 -9381280.901 5719247.277 23033140.783 10 0 60557 44100.00000 0 -11265185.327 3629907.328 22605527.178 10 0 60557 45000.00000 0 -13240293.305 1739300.172 21739349.608 10 0 60557 45900.00000 0 -15248095.346 84148.749 20451245.091 10 0 60557 46800.00000 0 -17225480.381 -1310352.771 18766047.333 10 0 60557 47700.00000 0 -19107261.353 -2431363.384 16716320.015 10 0 60557 48600.00000 0 -20828810.130 -3278695.673 14341738.663 10 0 60557 49500.00000 0 -22328692.119 -3864579.581 11688331.734 10 0 60557 50400.00000 0 -23551190.162 -4212899.253 8807594.546 10 0 60557 51300.00000 0 -24448611.361 -4357935.052 5755492.470 10 0 60557 52200.00000 0 -24983278.945 -4342663.874 2591372.408 10 0 60557 53100.00000 0 -25129124.166 -4216690.011 -623196.127 10 0 60557 54000.00000 0 -24872809.801 -4033894.798 -3825627.167 10 0 60557 54900.00000 0 -24214336.631 -3849905.702 -6953547.272 10 0 60557 55800.00000 0 -23167106.193 -3719493.461 -9946022.122 10 0 60557 56700.00000 0 -21757436.378 -3694009.178 -12744755.456 10 0 60557 57600.00000 0 -20023549.868 -3818971.670 -15295235.703 10 0 60557 58500.00000 0 -18014077.966 -4131908.876 -17547806.750 10 0 60557 59400.00000 0 -15786143.060 -4660546.156 -19458641.137 10 0 60557 60300.00000 0 -13403100.717 -5421419.289 -20990596.212 10 0 60557 61200.00000 0 -10932036.759 -6418971.651 -22113936.412 10 0 60557 62100.00000 0 -8441124.634 -7645174.246 -22806907.856 10 0 60557 63000.00000 0 -5996953.900 -9079684.915 -23056154.587 10 0 60557 63900.00000 0 -3661941.436 -10690540.123 -22856969.076 10 0 60557 64800.00000 0 -1491932.977 -12435350.192 -22213373.007 10 0 60557 65700.00000 0 465905.857 -14262947.725 -21138027.621 10 0 60557 66600.00000 0 2174822.402 -16115419.936 -19651976.218 10 0 60557 67500.00000 0 3609763.058 -17930439.652 -17784224.547 10 0 60557 68400.00000 0 4758161.064 -19643797.392 -15571167.828 10 0 60557 69300.00000 0 5620195.182 -21192028.587 -13055876.068 10 0 60557 70200.00000 0 6208510.829 -22515026.216 -10287251.839 10 0 60557 71100.00000 0 6547417.552 -23558529.845 -7319077.156 10 0 60557 72000.00000 0 6671598.579 -24276387.315 -4208968.126 10 0 60557 72900.00000 0 6624388.459 -24632494.926 -1017257.716 10 0 60557 73800.00000 0 6455692.626 -24602335.501 2194171.700 10 0 60557 74700.00000 0 6219637.528 -24174050.480 5363083.456 10 0 60557 75600.00000 0 5972050.936 -23349001.711 8428086.437 10 0 60557 76500.00000 0 5767878.881 -22141799.815 11329816.805 10 0 60557 77400.00000 0 5658648.083 -20579798.118 14012079.202 10 0 60557 78300.00000 0 5690080.580 -18702073.205 16422926.054 10 0 60557 79200.00000 0 5899960.756 -16557934.274 18515654.889 10 0 60557 80100.00000 0 6316344.381 -14205022.719 20249705.224 10 0 60557 81000.00000 0 6956184.988 -11707080.130 21591438.551 10 0 60557 81900.00000 0 7824435.687 -9131476.292 22514787.103 10 0 60557 82800.00000 0 8913664.889 -6546598.592 23001759.371 10 0 60557 83700.00000 0 10204203.246 -4019209.821 23042792.897 10 0 60557 84600.00000 0 11664817.261 -1611882.709 22636947.405 10 0 60557 85500.00000 0 13253883.209 619383.469 21791934.070 99